Change the Weather History Date:

Tuesday, March 19, 2013

  Actual Average Record
Temperature  
Mean Temperature 42 °F -  
Max Temperature 53 °F 59 °F 84 °F (1948)
Min Temperature 33 °F 37 °F 8 °F (1923)
Degree Days  
Heating Degree Days 22    
Moisture  
Dew Point 28 °F    
Average Humidity 57    
Maximum Humidity 86    
Minimum Humidity 30    
Precipitation  
Precipitation 0.00 in - - ()
Sea Level Pressure  
Sea Level Pressure 30.17 in    
Wind  
Wind Speed 4 mph (North)    
Max Wind Speed 9 mph    
Max Gust Speed -    
Visibility 10 miles    
Events      
Averages and records for this station are not official NWS values.
T = Trace of Precipitation, MM = Missing Value Source: NWS Daily Summary

Daily Weather History Graph

Daily Weather History Graph

Search for Another Location

Airport or City:

Trip Planner

Search our weather history database for the weather conditions in past years. The results will help you decide how hot, cold, wet, or windy it might be!

Date:

Astronomy

Mar. 19, 2013 Rise Set
Actual Time 7:05 AM CDT 7:12 PM CDT
Civil Twilight 6:40 AM CDT 7:38 PM CDT
Nautical Twilight 6:10 AM CDT 8:08 PM CDT
Astronomical Twilight 5:39 AM CDT 8:39 PM CDT
Moon 12:04 PM CDT (3/19) 1:51 AM CDT (3/19)
Length of Visible Light 12h 58m
Length of Day
12h 06m
Waxing Crescent, 50% of the Moon is Illuminated
Mar 19
Waxing Crescent
Mar 19
First Quarter
Mar 27
Full
Apr 2
Last Quarter
Apr 10
New

Hourly Weather History & Observations

Time (CDT) Temp. Windchill Dew Point Humidity Pressure Visibility Wind Dir Wind Speed Gust Speed Precip Events Conditions
12:53 AM 43.0 °F 40.3 °F 33.1 °F 68% 30.05 in 10.0 mi WSW 4.6 mph - N/A   Clear
1:53 AM 39.0 °F - 33.1 °F 79% 30.06 in 10.0 mi Calm Calm - N/A   Clear
2:53 AM 36.0 °F 33.3 °F 32.0 °F 86% 30.08 in 10.0 mi WNW 3.5 mph - N/A   Clear
3:53 AM 36.0 °F 33.3 °F 30.9 °F 82% 30.07 in 10.0 mi NNW 3.5 mph - N/A   Clear
4:53 AM 34.0 °F 29.8 °F 30.0 °F 85% 30.11 in 10.0 mi WNW 4.6 mph - N/A   Clear
5:53 AM 34.0 °F 28.0 °F 28.9 °F 82% 30.11 in 10.0 mi North 6.9 mph - N/A   Clear
6:53 AM 33.1 °F 30.0 °F 26.1 °F 75% 30.13 in 10.0 mi SW 3.5 mph - N/A   Clear
7:53 AM 34.0 °F - 27.0 °F 75% 30.14 in 10.0 mi Calm Calm - N/A   Clear
8:53 AM 39.0 °F 35.7 °F 26.1 °F 60% 30.18 in 10.0 mi NNW 4.6 mph - N/A   Clear
9:53 AM 42.1 °F 37.7 °F 21.0 °F 43% 30.21 in 10.0 mi NNW 6.9 mph - N/A   Clear
10:53 AM 46.0 °F 43.9 °F 19.9 °F 35% 30.21 in 10.0 mi North 4.6 mph - N/A   Clear
11:53 AM 48.0 °F - 21.0 °F 34% 30.22 in 10.0 mi ENE 8.1 mph - N/A   Clear
12:53 PM 52.0 °F - 21.0 °F 30% 30.21 in 10.0 mi North 9.2 mph - N/A   Clear
1:53 PM 50.0 °F - 27.0 °F 41% 30.22 in 10.0 mi SSE 9.2 mph - N/A   Mostly Cloudy
2:53 PM 52.0 °F - 25.0 °F 35% 30.19 in 10.0 mi SSE 8.1 mph - N/A   Overcast
3:53 PM 51.1 °F - 26.1 °F 38% 30.19 in 10.0 mi SE 8.1 mph - N/A   Unknown
4:53 PM 51.1 °F - 25.0 °F 36% 30.19 in 10.0 mi SE 5.8 mph - N/A   Overcast
5:53 PM 51.1 °F - 26.1 °F 38% 30.19 in 10.0 mi SE 5.8 mph - N/A   Overcast
6:53 PM 48.9 °F - 28.9 °F 46% 30.20 in 10.0 mi ESE 3.5 mph - N/A   Overcast
7:53 PM 48.0 °F - 30.9 °F 52% 30.21 in 10.0 mi Calm Calm - N/A   Mostly Cloudy
8:53 PM 46.0 °F - 33.1 °F 61% 30.21 in 10.0 mi Calm Calm - N/A   Mostly Cloudy
9:53 PM 45.0 °F 43.5 °F 28.9 °F 53% 30.23 in 10.0 mi North 3.5 mph - N/A   Overcast
10:53 PM 42.1 °F 39.2 °F 30.9 °F 65% 30.22 in 10.0 mi SSW 4.6 mph - N/A   Mostly Cloudy
11:53 PM 41.0 °F 38.0 °F 32.0 °F 70% 30.22 in 10.0 mi North 4.6 mph - N/A   Mostly Cloudy